Flag for Australia Weather past 2 weeks in Melbourne, Victoria, Australia

Now
63 °F

Sunny.


Feels Like: 63 °F
Forecast: 58 / 68 °F
Wind: 18 mph from Southwest

Location: Melbourne Airport

Current Time: Mar 5, 2015 at 7:58:12 PM

Latest Report: Mar 5, 2015 at 7:00 PM


Visibility: 10 mi

Pressure: 29.98 "Hg

Humidity: 37%

Dew point: 36 °F

Location of MelbourneLocation

Historic Weather in Melbourne — Graph

°F

Melbourne temperature yesterday

Maximum temperature yesterday: 77 °F (at 4:30 PM)
Minimum temperature yesterday: 55 °F (at 12:00 AM)
Average temperature yesterday: 65 °F

Past Weeks' High & Low Weather Summary

 TemperatureHumidityPressure
High99 °F (Feb 21, 2:00 PM)100% (Feb 23, 2:00 PM)30.15 "Hg (Feb 23, 2:00 PM)
Low48 °F (Mar 2, 7:00 AM)18% (Feb 21, 4:00 PM)29.47 "Hg (Feb 28, 8:00 PM)
Average68 °F64%29.93 "Hg
* Reported Feb 18 6:00 PM — Mar 5 6:30 PM, Melbourne, Weather by CustomWeather, © 2015

Note: Actual official high and low records may vary slightly from our data, if they occured in-between our weather recording intervals... More about our weather records

Advertising

Melbourne weather history for previous 24 hours

 ConditionsComfort  
Time TempWeatherWind HumidityBarometerVisibility
6:30 PM
Thu, Mar 5
64 °FSunny.21 mph32%29.98 "Hg10 mi
6:00 PM64 °FPartly sunny.15 mph40%29.98 "HgN/A
5:30 PM66 °FSunny.15 mph35%29.98 "Hg10 mi
5:00 PM66 °FPassing clouds.9 mph35%29.98 "HgN/A
4:30 PM64 °FSunny.12 mph43%29.98 "Hg10 mi
4:00 PM66 °FSunny.15 mph37%29.98 "Hg10 mi
3:00 PM66 °FSunny.15 mph40%30.01 "Hg10 mi
2:30 PM64 °FPartly sunny.15 mph40%30.01 "HgN/A
2:00 PM63 °FPartly sunny.12 mph39%30.04 "HgN/A
1:00 PM63 °FBroken clouds.18 mph37%30.04 "HgN/A
12:30 PM63 °FBroken clouds.18 mph37%30.07 "HgN/A
12:00 PM61 °FPartly sunny.18 mph42%30.07 "HgN/A
11:30 AM61 °FPartly sunny.23 mph36%30.07 "HgN/A
11:00 AM63 °FPartly sunny.22 mph39%30.07 "HgN/A
10:30 AM59 °FScattered clouds.26 mph42%30.04 "HgN/A
10:00 AM59 °FPassing clouds.22 mph42%30.04 "HgN/A
9:46 AM57 °FPassing clouds.23 mph44%30.04 "HgN/A
9:00 AM55 °FPassing clouds.16 mph55%30.01 "HgN/A
8:00 AM50 °FPassing clouds.10 mph67%29.98 "HgN/A
7:00 AM50 °FClear.9 mph67%29.95 "Hg10 mi
6:30 AM50 °FClear.15 mph62%29.95 "Hg10 mi
6:00 AM52 °FClear.16 mph62%29.95 "Hg10 mi
5:30 AM52 °FClear.20 mph67%29.95 "Hg10 mi
5:00 AM54 °FClear.20 mph67%29.92 "Hg10 mi
4:00 AM54 °FSprinkles. Partly cloudy.26 mph88%29.89 "Hg5 mi
3:30 AM57 °FPartly cloudy.23 mph77%29.86 "HgN/A
3:00 AM57 °FPartly cloudy.24 mph82%29.86 "HgN/A
2:00 AM61 °FPartly cloudy.26 mph77%29.83 "HgN/A
1:30 AM64 °FPassing clouds.18 mph52%29.83 "HgN/A
1:00 AM63 °FPassing clouds.12 mph59%29.83 "HgN/A
12:30 AM64 °FPassing clouds.18 mph56%29.83 "HgN/A
12:00 AM64 °FClear.12 mph56%29.83 "Hg10 mi
11:30 PM
Wed, Mar 4
64 °FClear.14 mph52%29.83 "Hg10 mi
11:00 PM64 °FClear.15 mph56%29.83 "Hg10 mi
10:30 PM66 °FClear.15 mph52%29.83 "Hg10 mi
10:00 PM66 °FClear.16 mph52%29.83 "Hg10 mi
9:30 PM66 °FClear.14 mph49%29.83 "Hg10 mi
9:00 PM66 °FClear.10 mph52%29.80 "Hg10 mi
8:30 PM68 °FClear.9 mph49%29.80 "Hg10 mi
8:00 PM70 °FClear.12 mph43%29.80 "Hg10 mi
7:30 PM72 °FSunny.13 mph41%29.80 "Hg10 mi
7:00 PM73 °FSunny.17 mph38%29.80 "Hg10 mi
Weather by CustomWeather, © 2015

See weather overviewHow to use our weather pages